Station DHXA2 - Deadhorse, AK Image indicating link to RSS feed of recent meteorological observations for station DHXA2


Conditions at DHXA2 as of
(1:14 am AKDT)
0914 GMT on 07/21/2024:
     

Click on the graph icon in the table below to see a time series plot of the last five days of that observation.

5-day plot - Wind Direction Wind Direction (WDIR):ESE ( 120 deg true )
5-day plot - Wind Speed Wind Speed (WSPD): 8 kts
5-day plot - Wind Gust Wind Gust (GST): 10 kts
5-day plot - Atmospheric Pressure Atmospheric Pressure (PRES):29.97 in
5-day plot - Air Temperature Air Temperature (ATMP): 50.9 °F
5-day plot - Dew Point Dew Point (DEWP): 50.5 °F
5-day plot - Wind Chill Wind Chill (CHILL): 47.5 °F
5-day plot - Wind Speed at 10 Meters Wind Speed at 10 meters (WSPD10M): 10 kts
5-day plot - Wind Speed at 20 Meters Wind Speed at 20 meters (WSPD20M): 10 kts
5-day plot -  Wind Speed, Wind Gust and Atmospheric Pressure Combined plot of Wind Speed, Gust, and Air Pressure
Previous observations
TIME
(AKDT)
5-day plot - Wind Direction
WDIR
 
5-day plot - Wind Speed
WSPD
kts
5-day plot - Wind Gust
GST
kts
5-day plot - Wave Height
WVHT
ft
5-day plot - Dominant Wave Period
DPD
sec
5-day plot - Average Wave Period
APD
sec
5-day plot - Mean Wave Direction
MWD
 
5-day plot - Atmospheric Pressure
PRES
in
5-day plot - Pressure Tendency
PTDY
in
5-day plot - Air Temperature
ATMP
°F
5-day plot - Water Temperature
WTMP
°F
5-day plot - Dew Point
DEWP
°F
5-day plot - Salinity
SAL
psu
5-day plot - Visibility
VIS
nmi
5-day plot - Tide (above MLLW)
TIDE
ft
2024-07-21 01:03 amESE 8 9----29.97- 50.7- 50.7---
2024-07-21 12:53 amESE 7 9----29.97- 50.9- 50.7---
2024-07-21 12:44 amESE 8 9----29.98- 51.1- 50.5---
2024-07-21 12:33 amESE 8 9----29.98- 51.1- 50.7---
2024-07-21 12:23 amESE 7 8----29.98- 51.1- 50.7---
2024-07-21 12:13 amESE 7 8----29.98- 51.3- 50.9---
2024-07-21 12:04 amESE 7 8----29.98- 51.6- 50.9---
2024-07-20 11:53 pm E 6 8----29.99- 52.0- 50.9---
2024-07-20 11:44 pm E 5 6----29.99- 52.3- 51.1---
2024-07-20 11:34 pmESE 5 7----29.99- 52.2- 51.1---
2024-07-20 11:24 pmESE 6 7----29.99- 52.3- 51.4---
2024-07-20 11:13 pmESE 6 7----29.99- 52.2- 51.3---
2024-07-20 11:03 pmESE 7 8----29.99- 52.2- 50.9---
2024-07-20 10:53 pmESE 8 9----29.99- 51.8- 50.7---
2024-07-20 10:43 pm E 7 8----29.99- 51.6- 50.4---
2024-07-20 10:33 pm E 8 10----29.99- 51.3- 50.2---
2024-07-20 10:24 pm E 7 9----29.99- 51.1- 50.0---
2024-07-20 10:13 pm E 7 9----29.99- 51.1- 49.6---
2024-07-20 10:03 pm E 7 8----30.00- 51.4- 49.6---
2024-07-20 09:53 pmENE 6 8----30.00- 51.4- 49.8---
2024-07-20 09:43 pmENE 6 8----30.01- 51.6- 50.0---
2024-07-20 09:33 pmENE 5 7----30.01- 52.2- 50.7---
2024-07-20 09:24 pmENE 5 7----30.01- 52.2- 50.7---
2024-07-20 09:14 pmENE 5 7----30.01- 53.1- 51.3---
2024-07-20 09:03 pm NE 4 5----30.01- 53.6- 52.0---
2024-07-20 08:54 pm NE 3 5----30.01- 53.2- 52.0---
2024-07-20 08:44 pm N 4 6----30.01- 52.9- 51.8---
2024-07-20 08:34 pm N 4 6----30.01- 52.7- 51.6---
2024-07-20 08:24 pm N 6 9----30.01- 52.2- 51.4---
2024-07-20 08:14 pm N 7 10----30.01- 52.3- 51.6---
2024-07-20 08:04 pm N 5 8----30.01- 53.1- 52.2---
2024-07-20 07:54 pm N 6 9----30.01- 52.2- 51.6---
2024-07-20 07:43 pmNNE 7 10----30.01- 51.6- 50.9---
2024-07-20 07:33 pmNNE 7 10----30.01- 52.5- 51.3---
2024-07-20 07:23 pmNNE 7 9----30.01- 52.7- 51.3---
2024-07-20 07:13 pmNNE 7 10----30.01- 53.1- 51.3---
2024-07-20 07:04 pmNNE 8 10----30.01- 54.1- 51.6---
2024-07-20 06:53 pmNNW 8 10----30.01- 59.0- 52.9---
2024-07-20 06:43 pmWNW 7 11----30.01- 61.0- 53.1---
2024-07-20 06:33 pmWNW 9 13----30.01- 61.0- 52.7---
2024-07-20 06:23 pmWNW 10 14----30.01- 61.0- 52.7---
2024-07-20 06:13 pmWNW 10 13----30.01- 61.2- 53.1---
2024-07-20 06:04 pmWNW 9 13----30.01- 61.9- 53.4---
2024-07-20 05:53 pmWNW 10 13----30.01- 61.9- 53.1---
2024-07-20 05:44 pm W 10 14----30.01- 62.2- 52.9---
2024-07-20 05:34 pm W 10 16----30.01- 62.2- 52.9---
2024-07-20 05:24 pm W 11 16----30.01- 62.2- 52.7---
2024-07-20 05:13 pmWNW 11 16----30.01- 62.1- 52.5---
2024-07-20 05:04 pm W 12 16----30.01- 62.1- 52.5---
2024-07-20 04:53 pm W 13 17----30.01- 61.9- 52.3---
2024-07-20 04:43 pm W 13 19----30.01- 61.9- 52.2---
2024-07-20 04:34 pm W 14 18----30.01- 61.7- 52.0---
2024-07-20 04:23 pm W 14 21----30.01- 61.9- 51.8---
2024-07-20 04:13 pm W 16 21----30.01- 61.9- 51.6---
2024-07-20 03:53 pm W 13 18----30.00- 61.7- 52.2---
2024-07-20 03:43 pm W 14 19----30.00- 61.7- 52.0---
2024-07-20 03:33 pm W 14 20----30.00- 62.4- 52.3---
2024-07-20 03:24 pm W 16 21----30.00- 62.4- 51.8---
2024-07-20 03:13 pm W 15 19----29.99- 62.4- 51.3---
2024-07-20 03:03 pm W 14 19----29.99- 62.6- 51.1---
2024-07-20 02:53 pm W 14 22----30.00- 62.4- 50.5---
2024-07-20 02:43 pm W 13 17----30.00- 62.1- 50.2---
2024-07-20 02:34 pm W 13 20----30.00- 61.9- 50.5---
2024-07-20 02:24 pm W 13 17----30.00- 62.1- 51.4---
2024-07-20 02:14 pm W 14 20----29.99- 62.1- 51.4---
2024-07-20 02:03 pm W 13 18----29.99- 62.1- 51.8---
2024-07-20 01:53 pm W 16 20----29.99- 62.2- 51.3---
2024-07-20 01:43 pmWSW 16 21----29.99- 62.6- 50.4---
2024-07-20 01:33 pm W 14 21----29.99- 63.1- 50.7---
2024-07-20 01:23 pm W 14 20----29.98- 63.1- 50.5---
2024-07-20 01:13 pm W 15 21----29.98- 63.7- 50.0---
2024-07-20 01:03 pmWSW 14 20----29.98- 63.5- 50.0---
2024-07-20 12:54 pm W 16 21----29.98- 63.1- 49.8---
2024-07-20 12:43 pmWSW 14 21----29.98- 63.0- 49.8---
2024-07-20 12:34 pmWSW 11 15----29.98- 62.8- 50.4---
2024-07-20 12:23 pm W 12 16----29.98- 62.4- 50.5---
2024-07-20 12:13 pmWSW 11 16----29.98- 62.1- 50.9---
2024-07-20 12:04 pm W 10 15----29.98- 61.5- 51.6---
2024-07-20 11:54 am W 9 13----29.98- 61.2- 51.4---
2024-07-20 11:44 am W 8 12----29.98- 60.4- 51.4---
2024-07-20 11:34 am W 9 13----29.98- 60.4- 51.3---
2024-07-20 11:24 am W 9 13----29.98- 60.1- 51.3---
2024-07-20 11:14 am W 7 11----29.98- 59.7- 51.4---
2024-07-20 11:03 amWSW 5 9----29.98- 59.0- 51.4---
2024-07-20 10:53 am W 6 10----29.98- 58.1- 51.1---
2024-07-20 10:43 amWSW 3 7----29.98- 57.4- 51.1---
2024-07-20 10:33 am W 5 7----29.98- 57.0- 50.7---
2024-07-20 10:23 amWSW 6 8----29.98- 57.2- 50.7---
2024-07-20 10:13 amWSW 7 10----29.98- 56.8- 50.4---
2024-07-20 10:03 am SW 6 8----29.98- 56.3- 50.4---
2024-07-20 09:53 am W 5 7----29.98- 55.8- 50.4---
2024-07-20 09:43 amWSW 5 6----29.98- 55.4- 50.2---
2024-07-20 09:33 amSSW 4 5----29.98- 55.0- 49.8---
2024-07-20 09:23 amSSW 5 7----29.97- 54.5- 49.6---
2024-07-20 09:14 amSSW 4 8----29.97- 54.1- 49.5---
2024-07-20 09:04 amSSW 4 6----29.97- 54.0- 49.3---
2024-07-20 08:54 amSSW 4 5----29.97- 53.4- 49.1---
2024-07-20 08:44 am S 3 5----29.97- 52.9- 49.1---
2024-07-20 08:34 am S 4 6----29.97- 52.5- 48.9---
2024-07-20 08:24 am SE 4 5----29.98- 52.2- 48.9---
2024-07-20 08:14 am SE 5 6----29.97- 51.6- 48.6---
2024-07-20 08:04 am SE 5 7----29.97- 51.3- 48.4---
2024-07-20 07:54 am SE 6 7----29.97- 50.9- 48.2---
2024-07-20 07:44 amESE 7 8----29.97- 50.4- 47.8---
2024-07-20 07:34 am SE 7 9----29.97- 50.2- 48.0---
2024-07-20 07:24 am SE 6 7----29.97- 49.8- 47.7---
2024-07-20 07:13 amSSE 6 8----29.97- 49.5- 47.5---
2024-07-20 07:03 amSSE 5 7----29.97- 49.3- 47.5---
2024-07-20 06:53 amSSE 6 9----29.97- 48.9- 47.5---
2024-07-20 06:43 amSSE 7 9----29.97- 48.4- 46.9---
2024-07-20 06:33 amSSE 6 9----29.97-------
2024-07-20 06:24 am S 6 8----29.97-------
2024-07-20 06:13 am S 8 9----29.97-------
2024-07-20 06:04 am S 6 9----29.97-------
2024-07-20 05:54 am S 7 9----29.97-------
2024-07-20 05:44 am S 8 11----29.96-------
2024-07-20 05:34 am S 7 9----29.96-------
2024-07-20 05:23 am S 7 9----29.96-------
2024-07-20 05:13 am S 7 8----29.96-------
2024-07-20 05:03 am S 8 10----29.96-------
2024-07-20 04:53 am S 7 10----29.96-------
2024-07-20 04:43 am S 7 9----29.96-------
2024-07-20 04:34 am S 7 9----29.96-------
2024-07-20 04:23 am S 8 9----29.96-------
2024-07-20 04:13 am S 7 9----29.96-------
2024-07-20 04:04 am S 8 10----29.96-------
2024-07-20 03:53 am S 8 10----29.96-------
2024-07-20 03:43 am S 8 9----29.96-------
2024-07-20 03:34 am S 7 9----29.96-------
2024-07-20 03:23 am S 7 9----29.96-------
2024-07-20 03:13 am S 7 9----29.96-------
2024-07-20 03:04 am S 6 8----29.95-------
2024-07-20 02:53 am S 6 8----29.95-------
2024-07-20 02:43 am S 5 6----29.95-------
2024-07-20 02:34 am S 5 6----29.95-------
2024-07-20 02:24 am S 3 4----29.94-------
2024-07-20 02:13 am S 3 5----29.94-------
2024-07-20 02:03 amWSW 1 2----29.94-------
2024-07-20 01:53 am W 2 3----29.94-------
2024-07-20 01:43 am W 2 4----29.93-------
2024-07-20 01:34 am NW 3 5----29.93-------
2024-07-20 01:23 amNNW 3 6----29.93-------
2024-07-20 01:13 amNNW 3 4----29.92-------
2024-07-20 01:03 am NW 3 4----29.92-------
2024-07-20 12:53 am NW 3 5----29.92-------